Back to catalog

STARLINK-36268

AliveCommunicationsVLEO
NORAD 67199·PAYLOAD·🇺🇸 United States

Launched Dec 17, 2025 from Vandenberg Space Force Base

Loading…

Next Passes (next 24 hours)

TLE

FreshSource: CelesTrak SupGP

Epoch: Sep 15, 2026, 03:08 UTC

1 67199C 25304H   26258.13104167 -.00039548  00000+0 -33145-2 0  2588
2 67199  70.0008  56.9076 0002452 263.8279 272.9210 14.98348635    17

Track STARLINK-36268 in real time with AllMySat

Download on the App Store